Flag for U.S.A. Weather past 2 weeks in Springfield, Missouri, U.S.A.

Now
78 °F

Sunny.


Feels Like: 80 °F
Forecast: 64 / 83 °F
Wind: 16 mph from South

Location: Springfield Regional Airport

Current Time: Oct 1, 2014 at 12:01:02 PM

Latest Report: Oct 1, 2014 at 10:52 AM


Visibility: 10 mi

Pressure: 29.82 "Hg

Humidity: 60%

Dew point: 63 °F

Location of SpringfieldLocation

Historic Weather in Springfield — Graph

°F

Springfield temperature yesterday

Maximum temperature yesterday: 83 °F (at 1:52 PM)
Minimum temperature yesterday: 59 °F (at 6:52 AM)
Average temperature yesterday: 70 °F

Past Weeks' High & Low Weather Summary

 TemperatureHumidityPressure
High84 °F (Sep 20, 1:52 PM)97% (Sep 17, 2:52 AM)30.30 "Hg (Sep 17, 2:52 AM)
Low50 °F (Sep 22, 4:52 AM)31% (Sep 24, 2:52 PM)29.80 "Hg (Oct 1, 4:52 AM)
Average68 °F71%30.07 "Hg
* Reported Sep 16 10:52 AM — Oct 1 10:52 AM, Springfield, Weather by CustomWeather, © 2014

Note: Actual official high and low records may vary slightly from our data, if they occured in-between our weather recording intervals... More about our weather records

Advertising

Springfield weather history for previous 24 hours

 ConditionsComfort  
Time TempWeatherWind HumidityBarometerVisibility
10:52 AM
Oct 1
78 °FSunny.16 mph60%29.82 "Hg10 mi
9:52 AM73 °FSunny.16 mph62%29.82 "Hg10 mi
8:52 AM70 °FSunny.15 mph66%29.84 "Hg10 mi
7:52 AM66 °FClear.13 mph73%29.82 "Hg10 mi
6:52 AM64 °FClear.12 mph75%29.81 "Hg10 mi
5:52 AM65 °FClear.13 mph73%29.80 "Hg10 mi
4:52 AM65 °FPassing clouds.13 mph73%29.80 "Hg10 mi
3:52 AM66 °FPassing clouds.10 mph70%29.80 "Hg10 mi
2:52 AM66 °FClear.12 mph68%29.81 "Hg10 mi
1:52 AM67 °FClear.13 mph66%29.80 "Hg10 mi
12:52 AM66 °FClear.9 mph68%29.82 "Hg10 mi
11:52 PM
Sep 30
67 °FClear.10 mph66%29.83 "Hg10 mi
10:52 PM67 °FClear.9 mph66%29.84 "Hg10 mi
9:52 PM67 °FClear.7 mph66%29.84 "Hg10 mi
8:52 PM69 °FClear.7 mph63%29.84 "Hg10 mi
7:52 PM71 °FSunny.6 mph59%29.83 "Hg10 mi
6:52 PM75 °FPassing clouds.8 mph54%29.82 "Hg10 mi
5:52 PM80 °FPassing clouds.9 mph45%29.83 "Hg10 mi
4:52 PM82 °FScattered clouds.9 mph41%29.83 "Hg10 mi
3:52 PM83 °FSunny.8 mph36%29.84 "Hg10 mi
2:52 PM81 °FPassing clouds.6 mph42%29.85 "Hg10 mi
1:52 PM83 °FPartly sunny.13 mph43%29.88 "Hg10 mi
12:52 PM79 °FPassing clouds.12 mph50%29.91 "Hg10 mi
Weather by CustomWeather, © 2014

See weather overviewHow to use our weather pages